This demonstration page uses our WeatherBlox Daily Observations layout. Learn more.

Left ArrowRight Arrow

Hourly Observations for November 30, 2016

Temp ( °F °C ) Dew Point ( °F °C ) Humidity (%) Winds ( mph kmh ) Pressure ( in mb ) Visibility ( mi km ) Precip ( " mm )
12:53 am 00:53 Cloudy 69 20.6 64 17.8 84 84 S 10 17 29.85 1011 10 16 0.00 0.00
1:53 am 01:53 Cloudy 69 20.6 63 17.2 81 81 S 7 11 29.84 1011 10 16 0.00 0.03
2:53 am 02:53 Cloudy 69 20.6 62 16.7 78 78 S 9 15 29.83 1010 10 16 0.00 0.00
3:36 am 03:36 Cloudy 69 20.6 62 16.7 78 78 S 6 9 29.83 1010 10 16 0.00 0.00
3:53 am 03:53 Cloudy 69 20.6 62 16.7 78 78 S 6 9 29.83 1010 10 16 0.00 0.00
4:53 am 04:53 Cloudy 69 20.6 63 17.2 81 81 S 9 15 29.82 1010 10 16 0.00 0.00
5:53 am 05:53 Cloudy 69 20.6 63 17.2 81 81 S 10 17 29.82 1010 10 16 0.00 0.00
6:53 am 06:53 Cloudy 68 20 62 16.7 81 81 S 9 15 29.82 1010 10 16 0.00 0.00
7:53 am 07:53 Mostly Cloudy 67 19.4 63 17.2 87 87 S 9 15 29.81 1010 10 16 0.00 0.00
8:14 am 08:14 Cloudy 66 19 63 17 88 88 S 9 15 29.80 1009 10 16 0.00 0.00
8:51 am 08:51 Cloudy 68 20 63 17 83 83 S 12 19 29.80 1009 10 16 0.00 0.00
8:53 am 08:53 Cloudy 68 20 63 17.2 84 84 S 12 19 29.81 1009 10 16 0.00 0.00
9:53 am 09:53 Cloudy 69 20.6 62 16.7 78 78 S 9 15 29.80 1009 10 16 0.00 0.00
10:53 am 10:53 Cloudy 71 21.7 63 17.2 76 76 S 10 17 29.77 1008 10 16 0.00 0.00
11:50 am 11:50 Cloudy 72 22 63 17 73 73 S 8 13 29.74 1007 10 16 0.00 0.00
11:53 am 11:53 Cloudy 71 21.7 62 16.7 73 73 S 14 22 29.74 1007 10 16 0.00 0.00
12:20 pm 12:20 Cloudy 72 22 63 17 73 73 S 9 15 29.74 1007 10 16 0.00 0.00
12:53 pm 12:53 Mostly Cloudy 72 22.2 62 16.7 71 71 S 12 19 29.70 1006 10 16 0.00 0.00
1:44 pm 13:44 Cloudy with Heavy Rain 70 21 61 16 73 73 SW 25 41 29.68 1005 3 4 0.00 0.00
1:49 pm 13:49 Cloudy with Heavy Rain 64 18 61 16 88 88 SW 15 24 29.68 1005 2 2 0.10 2.54
1:53 pm 13:53 Cloudy with Heavy Rain 64 17.8 60 15.6 87 87 SW 14 22 29.71 1006 1 2 0.14 3.56
2:00 pm 14:00 Cloudy with Heavy Rain 63 17 61 16 94 94 SSW 13 20 29.74 1007 1 2 0.00 0.00
2:03 pm 14:03 Cloudy with Strong Thunderstorms 63 17 61 16 94 94 SW 8 13 29.71 1006 1 1 0.00 0.00
2:13 pm 14:13 Cloudy with Strong Thunderstorms 63 17.2 60 15.6 90 90 SSW 7 11 29.74 1007 2 2 0.33 8.38
2:21 pm 14:21 Cloudy with Nearby Thunderstorms 63 17.2 60 15.6 90 90 SW 10 17 29.74 1007 1 1 0.44 11.18
2:29 pm 14:29 Cloudy with Nearby Thunderstorms 63 17.2 60 15.6 90 90 SW 8 13 29.74 1007 1 2 0.57 14.48
2:40 pm 14:40 Cloudy with Heavy Rain 63 17 61 16 94 94 SSW 8 13 29.74 1007 3 4 0.00 0.00
2:53 pm 14:53 Cloudy with Nearby Thunderstorms 63 17.2 60 15.6 90 90 SSW 5 7 29.71 1006 3 5 0.65 16.51
3:09 pm 15:09 Cloudy with Rain 63 17.2 60 15.6 90 90 SSW 6 9 29.74 1007 3 5 0.04 1.02
3:53 pm 15:53 Mostly Cloudy with Light Rain 63 17.2 60 15.6 90 90 SW 5 7 29.68 1005 10 16 0.09 2.29
4:09 pm 16:09 Mostly Cloudy 63 17.2 60 15.6 90 90 WSW 7 11 29.74 1007 10 16 0.01 0.25
4:41 pm 16:41 Cloudy 63 17.2 60 15.6 90 90 WSW 6 9 29.77 1008 10 16 0.01 0.25
4:53 pm 16:53 Cloudy with Light Rain 63 17.2 60 15.6 90 90 SW 6 9 29.75 1008 8 13 0.01 0.25
5:38 pm 17:38 Mostly Cloudy 64 18 61 16 88 88 W 7 11 29.80 1009 10 16 0.00 0.00
5:53 pm 17:53 Mostly Cloudy 64 17.8 59 15 84 84 W 7 11 29.78 1009 10 16 0.00 0.03
6:53 pm 18:53 Partly Cloudy 62 16.7 55 12.8 78 78 WSW 5 7 29.79 1009 10 16 0.00 0.00
7:53 pm 19:53 Clear 59 15 56 13.3 90 90 WSW 5 7 29.82 1010 10 16 0.00 0.00
8:53 pm 20:53 Clear 59 15 50 10 72 72 WSW 6 9 29.84 1010 10 16 0.00 0.00
9:53 pm 21:53 Clear 56 13.3 49 9.4 77 77 W 7 11 29.85 1011 10 16 0.00 0.00
10:53 pm 22:53 Clear 54 12.2 43 6.1 67 67 W 7 11 29.87 1012 10 16 0.00 0.00
11:53 pm 23:53 Clear 51 10.6 40 4.4 66 66 W 7 11 29.90 1012 10 16 0.00 0.00

Powered by AerisWeather